Weather History for MRLB - February, 2013

Change the Weather History Date:

Monday, February 4, 2013

  Actual Average Record
Temperature  
Mean Temperature 82 °F -  
Max Temperature 93 °F 90 °F 95 °F (1998)
Min Temperature 70 °F 74 °F 64 °F (2014)
Cooling Degree Days 16    
Growing Degree Days 32 (Base 50)    
Moisture  
Dew Point 60 °F    
Average Humidity 40    
Maximum Humidity 69    
Minimum Humidity 23    
Precipitation  
Precipitation 0.00 in - - ()
Sea Level Pressure  
Sea Level Pressure 29.81 in    
Wind  
Wind Speed 11 mph ()    
Max Wind Speed 17 mph    
Max Gust Speed 26 mph    
Visibility 8.4 miles    
Events      
Averages and records for this station are not official NWS values.
T = Trace of Precipitation, MM = Missing Value Source: Averaged Metar Reports

Daily Weather History Graph

Daily Weather History Graph

Search for Another Location

Airport or City:

Trip Planner

Search our weather history database for the weather conditions in past years. The results will help you decide how hot, cold, wet, or windy it might be!

Date:

Astronomy

Feb. 04, 2013 Rise Set
Actual Time 6:04 AM CST 5:47 PM CST
Civil Twilight 5:43 AM CST 6:09 PM CST
Nautical Twilight 5:17 AM CST 6:34 PM CST
Astronomical Twilight 4:52 AM CST 6:59 PM CST
Moon 12:28 AM CST 12:24 PM CST
Length of Visible Light 12h 26m
Length of Day
11h 42m
Last Quarter, 37% of the Moon is Illuminated
Feb 4
Last Quarter
Feb 10
New
Feb 17
First Quarter
Feb 25
Full
Mar 4
Last Quarter

Hourly Weather History & Observations

Time (CST) Temp. Heat Index Dew Point Humidity Pressure Visibility Wind Dir Wind Speed Gust Speed Precip Events Conditions
6:00 AM 78 °F - 60 °F 44% 29.83 in 12 mi East 10.4 mph - -   Scattered Clouds
6:00 AM 77.0 °F - 60.8 °F 57% 29.82 in 6.2 mi East 10.4 mph - N/A   Mostly Cloudy
7:00 AM 71.6 °F - 60.8 °F 69% 29.84 in 6.2 mi NE 6.9 mph - N/A   Mostly Cloudy
8:00 AM 82.4 °F 82.5 °F 59.0 °F 45% 29.86 in 6.2 mi East 11.5 mph - N/A   Mostly Cloudy
9:00 AM 87 °F - 57 °F 26% 29.88 in 12 mi ENE 17.3 mph - -   Scattered Clouds
9:00 AM 87.8 °F 86.5 °F 57.2 °F 35% 29.87 in 6.2 mi ENE 17.3 mph - N/A   Scattered Clouds
10:00 AM 87.8 °F 86.5 °F 57.2 °F 35% 29.88 in - ENE 13.8 mph - N/A   Clear
11:00 AM 89.6 °F 88.1 °F 57.2 °F 33% 29.86 in - ENE 15.0 mph - N/A   Clear
12:00 PM 91 °F - 59 °F 24% 29.84 in 12 mi ENE 12.7 mph - -   Clear
12:00 PM 91.4 °F 90.7 °F 59.0 °F 34% 29.83 in - ENE 12.7 mph - N/A   Clear
1:00 PM 93.2 °F 92.6 °F 59.0 °F 32% 29.80 in - ENE 12.7 mph - N/A   Clear
2:00 PM 93.2 °F 92.6 °F 59.0 °F 32% 29.77 in 6.2 mi NE 13.8 mph 26.5 mph N/A   Partly Cloudy
3:00 PM 93 °F - 59 °F 23% 29.77 in 12 mi ENE 15.0 mph - -   Scattered Clouds
3:00 PM 93.2 °F 92.6 °F 59.0 °F 32% 29.75 in 6.2 mi ENE 15.0 mph - N/A   Partly Cloudy
4:00 PM 91.4 °F 91.4 °F 60.8 °F 36% 29.75 in 6.2 mi NE 15.0 mph 26.5 mph N/A   Partly Cloudy
5:00 PM 89.6 °F 90.1 °F 62.6 °F 40% 29.76 in 6.2 mi ENE 15.0 mph - N/A   Partly Cloudy
6:00 PM 85 °F - 64 °F 39% 29.79 in 12 mi ENE 16.1 mph - -  
6:00 PM 84.2 °F 85.6 °F 64.4 °F 51% 29.77 in - ENE 16.1 mph - N/A   Clear
7:00 PM 82.4 °F 83.9 °F 64.4 °F 54% 29.79 in - ENE 16.1 mph - N/A   Clear
8:00 PM 82.4 °F 83.9 °F 64.4 °F 54% 29.82 in - East 15.0 mph - N/A   Clear